◎P/1892 T1 = 2008 T3の連結軌道と予報位置



 ドイツのメイヤーから1892年に出現し,その後,見失われているD/1892 T1と

最近,発見されたP/2008 T3が同定可能であるという私信が届いた.

 OAA計算課では,この同定のチェックをしたところ,ほぼ,氏の同定が正しい

ことを確認した.彗星は,見失われて以来,20公転して再発見されたことになる.

なお,彗星は,1922 Oct., 1934 Aug., 2005 Aug.に,それぞれ,0.28, 0.30, 

0.41 AUまで木星に接近していた.



    P/1892 T1 = 2008 T3 (Barnard-Boattini)    [Temporary named]

Epoch 1892 Dec. 8.0 TT = JDT 2412440.5  

T 1892 Dec. 11.25850 TT                                 Nakano

q   1.4314756            (2000.0)            P               Q

n   0.15184751     Peri.  170.05180     +0.93862993     -0.24374867

a   3.4796130      Node   208.06584     +0.26995053     +0.95955555

e   0.5886107      Incl.   31.24638     +0.21471043     -0.14085360

P   6.49 (+/- 0.06 day)



Epoch 2008 Oct. 21.0 TT = JDT 2454760.5  

T 2008 Oct. 25.09058 TT                                 Nakano

q   1.1452813            (2000.0)            P               Q

n   0.16893756     Peri.  181.41848     +0.90381019     -0.36565097

a   3.2407975      Node   204.13498     +0.39778103     +0.90941238

e   0.6466051      Incl.   32.93730     +0.15778908     -0.19816281

P   5.83 (+/- 0.06 day)

From 77 observations 1892-2008, mean residual 0".55.

   Nongravitational parameters A1 = +1.01 +/- 0.12, A2 = +0.0668 +/- 0.0072.

Residuals in seconds of arc 

1892/                     081007 854  0.5-  1.4+    081008 673  0.4-  0.7+  

921017 020  4.5-  1.4+    081007 118  0.1-  0.1-    081008 673  0.1-  0.3+  

921018 020  0.6-  0.2+    081007 118  0.7-  0.4+    081008 673  0.5-  1.1+  

921019 020  1.1-  1.3+    081007 118  0.0   0.3+    081008 H01  0.2+  0.3+  

921021 020  0.4-  1.2+    081007 118  0.2+  0.1+    081008 H01  0.1+  0.3+  

921022 020  3.0+  1.2+    081007 J95  0.4-  0.3+    081008 H01  0.0   0.6+  

921024 020  1.6+  2.8-    081007 J95  0.1+  0.0     081008 H01  0.0   0.4+  

921026 020  0.1-  0.2-    081007 J95  0.4-  0.0     081008 H01  0.2+  0.3+  

921027 020  1.6+  2.6-    081007 J95  0.2-  0.1-    081008 H01  0.3+  0.2+  

921208 020  0.5+  2.6+    081007 A35  0.2-  0.3-    081008 H01  0.0   0.3+  

2008/                     081007 A35  0.1+  0.1-    081008 H01  0.4+  0.4+  

081007 703  1.0+  1.0-    081007 A35  0.5-  0.2+    081008 H01  0.2+  0.1+  

081007 703  0.1+  1.2+    081007 A35  0.1-  0.1+    081008 H01  0.0   0.4+  

081007 703  1.6-  0.8+    081008 J95  0.1+  0.1-    081008 448  0.1+  0.2+  

081007 703  0.5+  1.7+    081008 J95  0.0   0.1-    081008 448  0.3+  0.2-  

081007 703  1.0-  0.3-    081008 J95  0.1-  0.2-    081008 448  0.0   0.0   

081007 703  0.3-  0.5-    081008 682  0.5+  0.7-    081008 448  0.0   0.3-  

081007 703  0.1-  0.5+    081008 682  0.5+  1.0-    081008 448  0.1+  0.1-  

081007 703  0.1-  1.1+    081008 682  0.7+  1.0-    081008 G96  0.4+  0.1-  

081007 703  0.3-  0.7-    081008 G96  0.1-  0.0     081008 G96  0.4+  0.2-  

081007 703  0.1-  0.5-    081008 G96  0.2-  0.9-    081008 G96  0.3+  0.6-  

081007 703  0.2-  0.3-    081008 G96  0.2+  0.6-    081008 G96  0.1+  0.7-  

081007 703  0.1-  1.3-    081008 G96  0.3+  0.8-    081008 H06  0.6-  0.4+  

081007 703  0.4-  0.5-    081008 G96  0.2+  0.5-    081008 H06  0.2-  0.3+  

081007 703  0.8+  0.9-    081008 G96  0.3-  0.3-    081008 H06  0.4-  0.5+  

081007 703  1.9+  1.0-    081008 G96  0.4-  0.1-    081008 H06  1.1+  0.8+  

081007 854 (0.8+  2.8+)   081008 673  0.4-  0.6+                            



Date/        TT  R.A.(2000) Decl.     Delta   r     Daily motion  Mag.  Moon Age

              h    h  m       。  ,                      ,  / PA 。  m1      。

2008 Oct.  1 12  21 18.41  +43 40.6   0.299  1.185    75.5 / 147  17.1  116  .05

           2 12  21 22.11  +42 36.9   0.291  1.182    81.0 / 147  17.0  111  .10

           3 12  21 25.98  +41 28.3   0.282  1.179    87.0 / 148  17.0  104  .16

           4 12  21 30.04  +40 14.5   0.274  1.176    93.3 / 148  16.9   96  .24

           5 12  21 34.28  +38 55.1   0.266  1.173   100.1 / 148  16.8   88  .33

           6 12  21 38.70  +37 29.6   0.258  1.170   107.2 / 149  16.7   80  .42

           7 12  21 43.31  +35 57.8   0.251  1.168   114.7 / 149  16.7   71  .51

           8 12  21 48.10  +34 19.2   0.243  1.165   122.6 / 149  16.6   62  .61

           9 12  21 53.07  +32 33.5   0.236  1.163   130.8 / 150  16.5   53  .70

          10 12  21 58.21  +30 40.4   0.230  1.161   139.3 / 150  16.5   44  .79

          11 12  22 03.52  +28 39.6   0.224  1.159   147.9 / 150  16.4   37  .87

          12 12  22 09.00  +26 30.9   0.218  1.157   156.5 / 150  16.3   33  .93

          13 12  22 14.64  +24 14.3   0.212  1.155   165.0 / 151  16.3   33  .98

          14 12  22 20.43  +21 49.9   0.208  1.153   173.2 / 151  16.2   39 1.00

          15 12  22 26.36  +19 18.0   0.203  1.152   181.0 / 151  16.2   48  .99

          16 12  22 32.42  +16 39.1   0.200  1.151   188.0 / 151  16.1   60  .96

          17 12  22 38.61  +13 53.7   0.196  1.149   194.0 / 151  16.1   73  .90

          18 12  22 44.90  +11 03.0   0.194  1.148   198.9 / 151  16.0   87  .82

          19 12  22 51.29  +08 08.0   0.192  1.148   202.4 / 151  16.0  101  .72

          20 12  22 57.76  +05 10.0   0.191  1.147   204.4 / 151  16.0  115  .61

          21 12  23 04.31  +02 10.6   0.191  1.146   204.8 / 151  16.0  130  .50

          22 12  23 10.90  -00 48.8   0.191  1.146   203.6 / 151  16.0  143  .39

          23 12  23 17.54  -03 46.4   0.192  1.145   200.8 / 150  16.0  157  .29

          24 12  23 24.20  -06 40.9   0.194  1.145   196.6 / 150  16.0  169  .20

          25 12  23 30.86  -09 30.8   0.196  1.145   191.2 / 149  16.1  171  .12

          26 12  23 37.53  -12 14.9   0.199  1.145   184.7 / 149  16.1  161  .06

          27 12  23 44.17  -14 52.2   0.203  1.146   177.5 / 148  16.1  149  .02

          28 12  23 50.77  -17 22.0   0.207  1.146   169.6 / 147  16.2  137  .00

          29 12  23 57.33  -19 43.7   0.212  1.147   161.4 / 146  16.2  125  .00

          30 12  00 03.82  -21 57.0   0.218  1.147   153.0 / 145  16.3  114  .02

          31 12  00 10.24  -24 01.8   0.223  1.148   144.7 / 144  16.3  103  .06

     Nov.  1 12  00 16.57  -25 58.0   0.230  1.149   136.5 / 143  16.4   92  .11

NAKANO

         **** Don't distribute anyone except personal use only ****

                (C) Copyright 2008 OAA/ComputingSection

write mail from CFAD0::NAKANO on 2008-10-09 06:32:41(JST).



戻ります。